Location: Armidale
(30.5016°S, 151.6662°E)
Time: 02:46:40
(UTC+10:00)

Hubble Space Telescope - Pass Details

Date: 13 August 2020
Orbit: 536 x 540 km, 28.5° (Epoch: 28 September)

Event Time Altitude Azimuth Distance (km) Brightness Sun altitude
Rises 17:42:05 0° 269° (W) 2,687 6.2 -3.9°
Reaches altitude 10° 17:44:23 10° 273° (W) 1,794 5.2 -4.4°
Maximum altitude 17:48:27 56° 351° (N) 643 1.3 -5.3°
Drops below altitude 10° 17:52:30 10° 69° (ENE) 1,788 2.9 -6.1°
Enters shadow 17:53:49 - 72° (ENE) 2,296 3.5 -6.4°
